Location: Herm
(49.4830°N, 2.4500°W)
Time: 07:20:52
(UTC+00:00)

NOAA 15 - Pass Details

Date: 06 November 2021
Orbit: 797 x 813 km, 98.7° (Epoch: 08 December)

Event Time Altitude Azimuth Distance (km) Brightness Sun altitude
Rises 19:15:29 0° 176° (S) 3,322 7.7 -25.5°
Reaches altitude 10° 19:17:52 10° 181° (S) 2,396 7.0 -25.9°
Maximum altitude 19:23:04 56° 259° (W) 968 5.2 -26.7°
Drops below altitude 10° 19:28:19 10° 338° (NNW) 2,412 7.4 -27.6°
Sets 19:30:43 0° 342° (NNW) 3,347 8.1 -28.0°
